| time (UTC) | temp F | wind direction | speed MPH | gust MPH | rain 1hr in | rain 24hr in | rain mn in | humidity % | barometer mb |
| 20260510173521 | 63 | 261 | 4.0 | 9.0 | 0.00 | 0.28 | 0.06 | 53 | 1009.8 |
| 20260510173023 | 64 | 261 | 4.0 | 7.0 | 0.00 | 0.28 | 0.06 | 53 | 1009.7 |
| 20260510172532 | 64 | 7 | 5.0 | 7.0 | 0.00 | 0.28 | 0.06 | 55 | 1009.7 |
| 20260510172033 | 64 | 246 | 3.0 | 7.0 | 0.00 | 0.28 | 0.06 | 62 | 1009.7 |
| 20260510171535 | 64 | 204 | 3.0 | 7.0 | 0.00 | 0.28 | 0.06 | 62 | 1009.6 |
| 20260510171035 | 64 | 210 | 3.0 | 6.0 | 0.00 | 0.28 | 0.06 | 60 | 1009.5 |
| 20260510170517 | 63 | 180 | 2.0 | 6.0 | 0.00 | 0.28 | 0.06 | 62 | 1009.6 |
| 20260510170019 | 63 | 293 | 2.0 | 6.0 | 0.00 | 0.28 | 0.06 | 62 | 1009.6 |
| 20260510165541 | 62 | 165 | 3.0 | 7.0 | 0.00 | 0.28 | 0.06 | 61 | 1009.7 |
| 20260510165042 | 62 | 175 | 3.0 | 7.0 | 0.00 | 0.28 | 0.06 | 61 | 1009.7 |
| 20260510164518 | 63 | 153 | 2.0 | 7.0 | 0.00 | 0.28 | 0.06 | 62 | 1009.7 |
| 20260510164026 | 63 | 7 | 2.0 | 4.0 | 0.00 | 0.28 | 0.06 | 61 | 1009.7 |
| 20260510163548 | 63 | 160 | 1.0 | 4.0 | 0.00 | 0.28 | 0.06 | 61 | 1009.8 |
| 20260510163029 | 63 | 170 | 1.0 | 4.0 | 0.00 | 0.28 | 0.06 | 62 | 1009.9 |
| 20260510162551 | 62 | 170 | 2.0 | 4.0 | 0.00 | 0.28 | 0.06 | 63 | 1009.9 |
| 20260510162033 | 61 | 189 | 1.0 | 3.0 | 0.00 | 0.28 | 0.06 | 65 | 1010.1 |
| 20260510161535 | 61 | 228 | 1.0 | 3.0 | 0.00 | 0.28 | 0.06 | 65 | 1010.1 |
| 20260510161104 | 61 | 145 | 2.0 | 5.0 | 0.00 | 0.28 | 0.06 | 65 | 1010.0 |
| 20260510160539 | 61 | 195 | 3.0 | 6.0 | 0.00 | 0.28 | 0.06 | 62 | 1010.0 |
| 20260510160045 | 61 | 7 | 2.0 | 6.0 | 0.00 | 0.28 | 0.06 | 63 | 1009.9 |
| 20260510155546 | 61 | 197 | 3.0 | 7.0 | 0.00 | 0.28 | 0.06 | 62 | 1010.0 |
| 20260510155027 | 62 | 216 | 4.0 | 7.0 | 0.00 | 0.28 | 0.06 | 60 | 1010.0 |
| 20260510154528 | 62 | 147 | 4.0 | 9.0 | 0.00 | 0.28 | 0.06 | 59 | 1010.0 |
| 20260510154030 | 63 | 241 | 1.0 | 6.0 | 0.00 | 0.28 | 0.06 | 61 | 1009.9 |
| 20260510153531 | 62 | 239 | 1.0 | 6.0 | 0.00 | 0.28 | 0.06 | 63 | 1010.0 |
| 20260510153031 | 62 | 249 | 3.0 | 6.0 | 0.00 | 0.28 | 0.06 | 63 | 1010.0 |
| 20260510152533 | 61 | 181 | 2.0 | 6.0 | 0.00 | 0.28 | 0.06 | 64 | 1010.0 |
| 20260510152034 | 62 | 221 | 3.0 | 6.0 | 0.00 | 0.28 | 0.06 | 62 | 1010.0 |
| 20260510151536 | 63 | 199 | 3.0 | 7.0 | 0.00 | 0.28 | 0.06 | 64 | 1010.1 |
| 20260510151020 | 62 | 222 | 2.0 | 6.0 | 0.00 | 0.28 | 0.06 | 67 | 1010.2 |
| 20260510150541 | 61 | 203 | 3.0 | 7.0 | 0.00 | 0.28 | 0.06 | 67 | 1010.2 |
| 20260510150043 | 61 | 221 | 3.0 | 7.0 | 0.00 | 0.28 | 0.06 | 69 | 1010.3 |
| 20260510145518 | 60 | 248 | 4.0 | 11.0 | 0.00 | 0.28 | 0.06 | 69 | 1010.3 |
| 20260510145019 | 60 | 211 | 5.0 | 11.0 | 0.00 | 0.28 | 0.06 | 69 | 1010.6 |
| 20260510144521 | 60 | 187 | 4.0 | 10.0 | 0.00 | 0.28 | 0.06 | 71 | 1010.8 |
| 20260510144023 | 60 | 228 | 5.0 | 10.0 | 0.00 | 0.28 | 0.06 | 70 | 1010.9 |
| 20260510143526 | 59 | 243 | 4.0 | 10.0 | 0.00 | 0.28 | 0.06 | 74 | 1010.8 |
| 20260510143047 | 59 | 7 | 5.0 | 10.0 | 0.00 | 0.28 | 0.06 | 73 | 1010.7 |
| 20260510142529 | 58 | 239 | 2.0 | 5.0 | 0.00 | 0.28 | 0.06 | 76 | 1010.4 |
| 20260510142039 | 58 | 7 | 2.0 | 6.0 | 0.00 | 0.28 | 0.06 | 76 | 1010.2 |
| 20260510141559 | 58 | 7 | 2.0 | 9.0 | 0.00 | 0.28 | 0.06 | 76 | 1010.2 |
| 20260510141040 | 58 | 204 | 5.0 | 9.0 | 0.00 | 0.28 | 0.06 | 73 | 1011.2 |
| 20260510140540 | 58 | 214 | 5.0 | 10.0 | 0.00 | 0.28 | 0.06 | 73 | 1011.4 |
| 20260510140020 | 58 | 187 | 3.0 | 9.0 | 0.00 | 0.28 | 0.06 | 76 | 1011.5 |
| 20260510135543 | 58 | 225 | 4.0 | 9.0 | 0.00 | 0.28 | 0.06 | 76 | 1011.4 |
| 20260510135043 | 57 | 250 | 4.0 | 9.0 | 0.04 | 0.28 | 0.06 | 78 | 1011.4 |
| 20260510134536 | 57 | 201 | 4.0 | 8.0 | 0.04 | 0.28 | 0.06 | 80 | 1011.4 |
| 20260510134046 | 56 | 7 | 4.0 | 12.0 | 0.08 | 0.28 | 0.06 | 83 | 1011.4 |
| 20260510133544 | 55 | 260 | 4.0 | 12.0 | 0.12 | 0.28 | 0.06 | 82 | 1011.5 |
| 20260510133018 | 55 | 252 | 4.0 | 9.0 | 0.28 | 0.28 | 0.06 | 85 | 1011.6 |
| 20260510132521 | 54 | 220 | 4.0 | 11.0 | 0.28 | 0.28 | 0.06 | 84 | 1011.9 |
| 20260510132022 | 54 | 197 | 5.0 | 11.0 | 0.28 | 0.28 | 0.06 | 85 | 1011.8 |
| 20260510131524 | 54 | 251 | 5.0 | 12.0 | 0.28 | 0.28 | 0.06 | 85 | 1012.0 |
| 20260510131028 | 53 | 274 | 5.0 | 15.0 | 0.28 | 0.28 | 0.06 | 84 | 1012.0 |
| 20260510130529 | 53 | 252 | 7.0 | 15.0 | 0.28 | 0.28 | 0.06 | 84 | 1011.9 |
| 20260510130030 | 54 | 259 | 6.0 | 13.0 | 0.28 | 0.28 | 0.06 | 83 | 1012.0 |
| 20260510125550 | 54 | 218 | 5.0 | 11.0 | 0.28 | 0.28 | 0.06 | 83 | 1012.0 |
| 20260510125029 | 55 | 7 | 6.0 | 15.0 | 0.24 | 0.24 | 0.05 | 81 | 1011.9 |
| 20260510124523 | 56 | 7 | 7.0 | 17.0 | 0.24 | 0.24 | 0.05 | 78 | 1011.7 |
| 20260510124026 | 58 | 7 | 6.0 | 17.0 | 0.20 | 0.20 | 0.04 | 70 | 1011.4 |
| 20260510123529 | 61 | 255 | 6.0 | 17.0 | 0.12 | 0.12 | 0.02 | 65 | 1011.2 |
| 20260510123044 | 64 | 207 | 5.0 | 12.0 | 0.00 | 0.00 | 0.00 | 57 | 1010.7 |
| 20260510122524 | 65 | 141 | 3.0 | 5.0 | 0.00 | 0.00 | 0.00 | 55 | 1010.1 |
| 20260510122027 | 65 | 225 | 1.0 | 5.0 | 0.00 | 0.00 | 0.00 | 53 | 1010.0 |
| 20260510121527 | 66 | 253 | 2.0 | 6.0 | 0.00 | 0.00 | 0.00 | 52 | 1010.1 |
| 20260510121028 | 66 | 162 | 2.0 | 6.0 | 0.00 | 0.00 | 0.00 | 52 | 1010.0 |
| 20260510120531 | 66 | 219 | 1.0 | 4.0 | 0.00 | 0.00 | 0.00 | 50 | 1010.0 |
| 20260510120029 | 67 | 258 | 3.0 | 4.0 | 0.00 | 0.00 | 0.00 | 48 | 1010.1 |
| 20260510115533 | 67 | 212 | 3.0 | 4.0 | 0.00 | 0.00 | 0.00 | 46 | 1010.2 |
| 20260510115034 | 67 | 206 | 1.0 | 5.0 | 0.00 | 0.00 | 0.00 | 48 | 1010.3 |
| 20260510114557 | 68 | 205 | 2.0 | 8.0 | 0.00 | 0.00 | 0.00 | 47 | 1010.3 |
| 20260510114019 | 68 | 258 | 2.0 | 8.0 | 0.00 | 0.00 | 0.00 | 49 | 1010.3 |
| 20260510113521 | 68 | 7 | 3.0 | 6.0 | 0.00 | 0.00 | 0.00 | 49 | 1010.4 |
| 20260510113024 | 68 | 264 | 2.0 | 7.0 | 0.00 | 0.00 | 0.00 | 47 | 1010.3 |
| 20260510112527 | 68 | 286 | 2.0 | 8.0 | 0.00 | 0.00 | 0.00 | 47 | 1010.4 |
| 20260510112028 | 68 | 7 | 3.0 | 6.0 | 0.00 | 0.00 | 0.00 | 47 | 1010.4 |
| 20260510111531 | 68 | 252 | 2.0 | 5.0 | 0.00 | 0.00 | 0.00 | 48 | 1010.4 |
| 20260510111034 | 68 | 220 | 2.0 | 6.0 | 0.00 | 0.00 | 0.00 | 46 | 1010.6 |
| 20260510110526 | 68 | 271 | 2.0 | 5.0 | 0.00 | 0.00 | 0.00 | 50 | 1010.6 |
| 20260510110035 | 68 | 277 | 3.0 | 7.0 | 0.00 | 0.00 | 0.00 | 49 | 1010.7 |
| 20260510105551 | 67 | 236 | 4.0 | 7.0 | 0.00 | 0.00 | 0.00 | 48 | 1010.8 |
| 20260510105030 | 67 | 162 | 2.0 | 7.0 | 0.00 | 0.00 | 0.00 | 54 | 1010.9 |
| 20260510104531 | 66 | 264 | 1.0 | 7.0 | 0.00 | 0.00 | 0.00 | 54 | 1011.0 |
| 20260510104033 | 66 | 262 | 3.0 | 7.0 | 0.00 | 0.00 | 0.00 | 53 | 1011.1 |
| 20260510103534 | 65 | 287 | 2.0 | 7.0 | 0.00 | 0.00 | 0.00 | 53 | 1011.2 |
| 20260510103037 | 65 | 333 | 3.0 | 8.0 | 0.00 | 0.00 | 0.00 | 55 | 1011.3 |
| 20260510102519 | 65 | 241 | 3.0 | 11.0 | 0.00 | 0.00 | 0.00 | 54 | 1011.3 |
| 20260510102021 | 64 | 218 | 2.0 | 11.0 | 0.00 | 0.00 | 0.00 | 55 | 1011.4 |
| 20260510101544 | 64 | 235 | 4.0 | 14.0 | 0.00 | 0.00 | 0.00 | 57 | 1011.4 |
| 20260510101027 | 64 | 206 | 7.0 | 14.0 | 0.00 | 0.00 | 0.00 | 53 | 1011.5 |
| 20260510100528 | 64 | 7 | 3.0 | 5.0 | 0.00 | 0.00 | 0.00 | 58 | 1011.4 |
| 20260510100030 | 63 | 245 | 2.0 | 9.0 | 0.00 | 0.00 | 0.00 | 58 | 1011.4 |
| 20260510095553 | 62 | 207 | 5.0 | 9.0 | 0.00 | 0.00 | 0.00 | 57 | 1011.4 |
| 20260510095033 | 62 | 7 | 3.0 | 8.0 | 0.00 | 0.00 | 0.00 | 59 | 1011.6 |
| 20260510094534 | 61 | 233 | 4.0 | 9.0 | 0.00 | 0.00 | 0.00 | 58 | 1011.6 |
| 20260510094036 | 61 | 225 | 3.0 | 9.0 | 0.00 | 0.00 | 0.00 | 59 | 1011.7 |
| 20260510093519 | 62 | 185 | 4.0 | 8.0 | 0.00 | 0.00 | 0.00 | 57 | 1011.7 |
| 20260510093021 | 63 | 267 | 4.0 | 7.0 | 0.00 | 0.00 | 0.00 | 58 | 1011.8 |
| 20260510092523 | 63 | 276 | 2.0 | 4.0 | 0.00 | 0.00 | 0.00 | 61 | 1011.8 |
| 20260510092026 | 62 | 115 | 1.0 | 4.0 | 0.00 | 0.00 | 0.00 | 60 | 1011.8 |
| 20260510091527 | 62 | 156 | 2.0 | 8.0 | 0.00 | 0.00 | 0.00 | 58 | 1011.9 |
| 20260510091027 | 63 | 216 | 4.0 | 8.0 | 0.00 | 0.00 | 0.00 | 58 | 1011.9 |
| 20260510090529 | 63 | 224 | 3.0 | 8.0 | 0.00 | 0.00 | 0.00 | 61 | 1011.7 |
| 20260510090031 | 62 | 182 | 4.0 | 8.0 | 0.00 | 0.00 | 0.00 | 60 | 1011.7 |
| 20260510085551 | 62 | 272 | 3.0 | 10.0 | 0.00 | 0.00 | 0.00 | 62 | 1011.7 |
| 20260510085053 | 61 | 230 | 4.0 | 10.0 | 0.00 | 0.00 | 0.00 | 61 | 1011.7 |
| 20260510084534 | 61 | 274 | 6.0 | 9.0 | 0.00 | 0.00 | 0.00 | 60 | 1011.7 |
| 20260510084033 | 61 | 276 | 3.0 | 11.0 | 0.00 | 0.00 | 0.00 | 63 | 1011.8 |
| 20260510083536 | 60 | 214 | 3.0 | 11.0 | 0.00 | 0.00 | 0.00 | 63 | 1011.8 |
| 20260510083020 | 60 | 240 | 6.0 | 12.0 | 0.00 | 0.00 | 0.00 | 60 | 1011.8 |
| 20260510082542 | 60 | 7 | 3.0 | 14.0 | 0.00 | 0.00 | 0.00 | 63 | 1011.9 |
| 20260510082023 | 59 | 7 | 6.0 | 14.0 | 0.00 | 0.00 | 0.00 | 62 | 1011.9 |
| 20260510081544 | 59 | 209 | 5.0 | 13.0 | 0.00 | 0.00 | 0.00 | 62 | 1011.8 |
| 20260510081052 | 59 | 220 | 5.0 | 14.0 | 0.00 | 0.00 | 0.00 | 64 | 1011.9 |
| 20260510080534 | 59 | 7 | 6.0 | 14.0 | 0.00 | 0.00 | 0.00 | 62 | 1011.8 |
| 20260510080035 | 59 | 7 | 5.0 | 12.0 | 0.00 | 0.00 | 0.00 | 64 | 1011.8 |
| 20260510075526 | 59 | 7 | 7.0 | 11.0 | 0.00 | 0.00 | 0.00 | 63 | 1011.8 |
| 20260510075029 | 59 | 162 | 5.0 | 12.0 | 0.00 | 0.00 | 0.00 | 65 | 1011.7 |
| 20260510074531 | 58 | 202 | 3.0 | 12.0 | 0.00 | 0.00 | 0.00 | 67 | 1011.7 |
| 20260510074032 | 58 | 245 | 5.0 | 9.0 | 0.00 | 0.00 | 0.00 | 65 | 1011.7 |
| 20260510073536 | 58 | 268 | 4.0 | 10.0 | 0.00 | 0.00 | 0.00 | 66 | 1011.7 |
| 20260510073036 | 58 | 7 | 4.0 | 11.0 | 0.00 | 0.00 | 0.00 | 66 | 1011.8 |
| 20260510072538 | 59 | 209 | 5.0 | 11.0 | 0.00 | 0.00 | 0.00 | 64 | 1011.7 |
| 20260510072019 | 59 | 162 | 5.0 | 10.0 | 0.00 | 0.00 | 0.00 | 64 | 1011.6 |
| 20260510071520 | 59 | 226 | 3.0 | 7.0 | 0.00 | 0.00 | 0.00 | 65 | 1011.4 |
| 20260510071019 | 59 | 193 | 2.0 | 6.0 | 0.00 | 0.00 | 0.00 | 69 | 1011.4 |
| 20260510070521 | 59 | 12 | 2.0 | 4.0 | 0.00 | 0.00 | 0.00 | 70 | 1011.3 |
| 20260510070022 | 59 | 110 | 1.0 | 3.0 | 0.00 | 0.00 | 0.00 | 71 | 1011.3 |
| 20260510065523 | 58 | 121 | 1.0 | 3.0 | 0.00 | 0.00 | 0.00 | 73 | 1011.3 |
| 20260510065053 | 57 | 157 | 1.0 | 3.0 | 0.00 | 0.00 | 0.00 | 74 | 1011.2 |
| 20260510064533 | 57 | 157 | 0.0 | 3.0 | 0.00 | 0.00 | 0.00 | 75 | 1011.2 |
| 20260510064054 | 56 | 157 | 2.0 | 5.0 | 0.00 | 0.00 | 0.00 | 76 | 1011.2 |
| 20260510063550 | 56 | 93 | 3.0 | 6.0 | 0.00 | 0.00 | 0.00 | 76 | 1011.1 |
| 20260510063031 | 55 | 94 | 2.0 | 4.0 | 0.00 | 0.00 | 0.00 | 77 | 1011.1 |
| 20260510062518 | 55 | 93 | 1.0 | 5.0 | 0.00 | 0.00 | 0.00 | 79 | 1011.1 |
| 20260510062020 | 54 | 91 | 2.0 | 6.0 | 0.00 | 0.00 | 0.00 | 80 | 1011.0 |
| 20260510061521 | 53 | 94 | 2.0 | 6.0 | 0.00 | 0.00 | 0.00 | 82 | 1010.9 |
| 20260510061019 | 52 | 83 | 2.0 | 5.0 | 0.00 | 0.00 | 0.00 | 82 | 1010.9 |
| 20260510060520 | 52 | 64 | 3.0 | 5.0 | 0.00 | 0.00 | 0.00 | 82 | 1010.9 |
| 20260510060047 | 52 | 73 | 3.0 | 5.0 | 0.00 | 0.00 | 0.00 | 81 | 1010.9 |
| 20260510055528 | 52 | 68 | 3.0 | 5.0 | 0.00 | 0.00 | 0.00 | 81 | 1010.9 |
| 20260510055029 | 52 | 58 | 2.0 | 4.0 | 0.00 | 0.00 | 0.00 | 81 | 1010.9 |
| 20260510054531 | 52 | 59 | 2.0 | 4.0 | 0.00 | 0.00 | 0.00 | 82 | 1010.9 |
| 20260510054031 | 51 | 127 | 1.0 | 3.0 | 0.00 | 0.00 | 0.00 | 83 | 1010.9 |
| 20260510053531 | 50 | 129 | 1.0 | 4.0 | 0.00 | 0.00 | 0.00 | 84 | 1010.7 |
| 20260510053029 | 50 | 149 | 1.0 | 2.0 | 0.00 | 0.00 | 0.00 | 85 | 1010.7 |
| 20260510052533 | 49 | 164 | 1.0 | 2.0 | 0.00 | 0.00 | 0.00 | 85 | 1010.7 |
| 20260510052035 | 49 | 114 | 0.0 | 2.0 | 0.00 | 0.00 | 0.00 | 85 | 1010.6 |
| 20260510051535 | 48 | 114 | 1.0 | 3.0 | 0.00 | 0.00 | 0.00 | 86 | 1010.5 |
| 20260510051036 | 48 | 113 | 2.0 | 3.0 | 0.00 | 0.00 | 0.00 | 85 | 1010.5 |
| 20260510050537 | 48 | 103 | 2.0 | 3.0 | 0.00 | 0.00 | 0.00 | 84 | 1010.6 |
| 20260510050038 | 49 | 105 | 1.0 | 3.0 | 0.00 | 0.00 | 0.00 | 84 | 1010.6 |
| 20260510045536 | 49 | 105 | 2.0 | 5.0 | 0.00 | 0.00 | 0.00 | 83 | 1010.5 |
| 20260510045037 | 50 | 105 | 3.0 | 5.0 | 0.00 | 0.00 | 0.00 | 82 | 1010.6 |
| 20260510044518 | 51 | 243 | 2.0 | 3.0 | 0.00 | 0.00 | 0.00 | 82 | 1010.6 |
| 20260510044021 | 51 | 244 | 2.0 | 3.0 | 0.00 | 0.00 | 0.00 | 83 | 1010.8 |
| 20260510043522 | 51 | 244 | 1.0 | 3.0 | 0.00 | 0.00 | 0.00 | 83 | 1010.8 |
| 20260510043043 | 51 | 245 | 1.0 | 3.0 | 0.00 | 0.00 | 0.00 | 83 | 1010.8 |
| 20260510042523 | 52 | 245 | 1.0 | 3.0 | 0.00 | 0.00 | 0.00 | 83 | 1010.8 |
| 20260510042025 | 52 | 245 | 1.0 | 3.0 | 0.00 | 0.00 | 0.00 | 83 | 1010.8 |
| 20260510041527 | 52 | 83 | 1.0 | 2.0 | 0.00 | 0.00 | 0.00 | 84 | 1010.7 |
| 20260510041029 | 52 | 83 | 1.0 | 3.0 | 0.00 | 0.00 | 0.00 | 83 | 1010.8 |
| 20260510040530 | 52 | 84 | 1.0 | 3.0 | 0.00 | 0.00 | 0.00 | 83 | 1010.8 |
| 20260510040032 | 52 | 166 | 1.0 | 2.0 | 0.00 | 0.00 | 0.00 | 83 | 1010.8 |
| 20260510035535 | 52 | 166 | 1.0 | 1.0 | 0.00 | 0.00 | 0.00 | 83 | 1010.7 |
| 20260510035037 | 52 | 166 | 1.0 | 1.0 | 0.00 | 0.00 | 0.00 | 83 | 1010.7 |
| 20260510034520 | 52 | 166 | 0.0 | 2.0 | 0.00 | 0.00 | 0.00 | 83 | 1010.7 |
| 20260510034023 | 52 | 166 | 1.0 | 2.0 | 0.00 | 0.00 | 0.00 | 82 | 1010.7 |
| 20260510033526 | 52 | 167 | 1.0 | 3.0 | 0.00 | 0.00 | 0.00 | 82 | 1010.7 |
| 20260510033027 | 53 | 168 | 2.0 | 5.0 | 0.00 | 0.00 | 0.00 | 82 | 1010.7 |
| 20260510032531 | 53 | 178 | 2.0 | 5.0 | 0.00 | 0.00 | 0.00 | 82 | 1010.7 |
| 20260510032032 | 53 | 185 | 1.0 | 5.0 | 0.00 | 0.00 | 0.00 | 82 | 1010.7 |
| 20260510031555 | 53 | 180 | 2.0 | 6.0 | 0.00 | 0.00 | 0.00 | 82 | 1010.7 |
| 20260510031055 | 54 | 191 | 2.0 | 3.0 | 0.00 | 0.00 | 0.00 | 81 | 1010.7 |
| 20260510030536 | 54 | 224 | 1.0 | 5.0 | 0.00 | 0.00 | 0.00 | 81 | 1010.8 |
| 20260510030037 | 54 | 7 | 2.0 | 5.0 | 0.00 | 0.00 | 0.00 | 82 | 1010.6 |
| 20260510025519 | 54 | 139 | 1.0 | 4.0 | 0.00 | 0.00 | 0.00 | 82 | 1010.6 |
| 20260510025022 | 54 | 230 | 1.0 | 4.0 | 0.00 | 0.00 | 0.00 | 82 | 1010.7 |
| 20260510024525 | 54 | 218 | 2.0 | 3.0 | 0.00 | 0.00 | 0.00 | 83 | 1010.6 |
| 20260510024019 | 54 | 217 | 1.0 | 3.0 | 0.00 | 0.00 | 0.00 | 83 | 1010.6 |
| 20260510023526 | 54 | 217 | 1.0 | 4.0 | 0.00 | 0.00 | 0.00 | 83 | 1010.5 |
| 20260510023026 | 54 | 206 | 1.0 | 4.0 | 0.00 | 0.00 | 0.00 | 83 | 1010.6 |
| 20260510022548 | 54 | 237 | 1.0 | 5.0 | 0.00 | 0.00 | 0.00 | 83 | 1010.6 |
| 20260510022028 | 54 | 231 | 2.0 | 6.0 | 0.00 | 0.00 | 0.00 | 83 | 1010.6 |
| 20260510021532 | 54 | 250 | 2.0 | 7.0 | 0.00 | 0.00 | 0.00 | 83 | 1010.6 |
| 20260510021033 | 54 | 257 | 3.0 | 7.0 | 0.00 | 0.00 | 0.00 | 83 | 1010.6 |
| 20260510020536 | 54 | 249 | 2.0 | 4.0 | 0.00 | 0.00 | 0.00 | 83 | 1010.5 |
| 20260510020038 | 54 | 255 | 1.0 | 3.0 | 0.00 | 0.00 | 0.00 | 83 | 1010.4 |
| 20260510015520 | 54 | 255 | 1.0 | 3.0 | 0.00 | 0.00 | 0.00 | 84 | 1010.3 |
| 20260510015043 | 54 | 260 | 2.0 | 3.0 | 0.00 | 0.00 | 0.00 | 84 | 1010.3 |
| 20260510014519 | 54 | 294 | 1.0 | 3.0 | 0.00 | 0.00 | 0.00 | 84 | 1010.2 |
| 20260510014022 | 55 | 24 | 1.0 | 2.0 | 0.00 | 0.00 | 0.00 | 85 | 1010.2 |
| 20260510013552 | 54 | 24 | 1.0 | 2.0 | 0.00 | 0.00 | 0.00 | 86 | 1010.1 |
| 20260510013031 | 54 | 24 | 1.0 | 3.0 | 0.00 | 0.00 | 0.00 | 86 | 1010.2 |
| 20260510012533 | 54 | 25 | 1.0 | 3.0 | 0.00 | 0.00 | 0.00 | 86 | 1010.1 |
| 20260510012035 | 54 | 102 | 0.0 | 1.0 | 0.00 | 0.00 | 0.00 | 86 | 1010.3 |
| 20260510011537 | 54 | 102 | 0.0 | 2.0 | 0.00 | 0.00 | 0.00 | 86 | 1010.4 |
| 20260510011038 | 55 | 102 | 0.0 | 3.0 | 0.00 | 0.00 | 0.00 | 86 | 1010.4 |
| 20260510010520 | 55 | 103 | 2.0 | 6.0 | 0.00 | 0.00 | 0.00 | 86 | 1010.5 |
| 20260510010039 | 55 | 105 | 3.0 | 6.0 | 0.00 | 0.00 | 0.00 | 86 | 1010.6 |
| 20260510005542 | 55 | 110 | 3.0 | 5.0 | 0.00 | 0.00 | 0.00 | 86 | 1010.6 |
| 20260510005046 | 55 | 87 | 3.0 | 5.0 | 0.00 | 0.00 | 0.00 | 85 | 1010.6 |
| 20260510004525 | 55 | 91 | 2.0 | 6.0 | 0.00 | 0.00 | 0.00 | 84 | 1010.7 |
| 20260510004048 | 55 | 103 | 2.0 | 5.0 | 0.00 | 0.00 | 0.00 | 84 | 1010.8 |
| 20260510003529 | 56 | 74 | 2.0 | 5.0 | 0.00 | 0.00 | 0.00 | 83 | 1010.9 |
| 20260510003030 | 56 | 73 | 3.0 | 5.0 | 0.00 | 0.00 | 0.00 | 83 | 1010.9 |
| 20260510002553 | 56 | 93 | 3.0 | 4.0 | 0.00 | 0.00 | 0.00 | 82 | 1010.8 |
| 20260510002033 | 56 | 135 | 2.0 | 4.0 | 0.00 | 0.00 | 0.00 | 82 | 1010.9 |
| 20260510001535 | 56 | 206 | 2.0 | 4.0 | 0.00 | 0.00 | 0.00 | 81 | 1011.0 |
| 20260510001037 | 56 | 156 | 1.0 | 7.0 | 0.00 | 0.00 | 0.00 | 81 | 1011.0 |
| 20260510000520 | 56 | 182 | 4.0 | 9.0 | 0.00 | 0.00 | 0.00 | 82 | 1010.9 |
| 20260510000020 | 56 | 241 | 4.0 | 9.0 | 0.00 | 0.00 | 0.00 | 82 | 1010.8 |
| 20260509235522 | 56 | 224 | 2.0 | 4.0 | 0.00 | 0.00 | 0.00 | 82 | 1010.9 |
| 20260509235023 | 56 | 223 | 2.0 | 4.0 | 0.00 | 0.00 | 0.00 | 83 | 1010.9 |
| 20260509234524 | 56 | 240 | 2.0 | 9.0 | 0.00 | 0.00 | 0.00 | 83 | 1010.9 |
| 20260509234025 | 56 | 292 | 3.0 | 9.0 | 0.00 | 0.00 | 0.00 | 83 | 1010.7 |
| 20260509233528 | 56 | 122 | 4.0 | 12.0 | 0.00 | 0.00 | 0.00 | 83 | 1010.5 |
| 20260509233020 | 56 | 105 | 5.0 | 12.0 | 0.00 | 0.00 | 0.00 | 83 | 1010.2 |
| 20260509232522 | 56 | 126 | 5.0 | 11.0 | 0.00 | 0.00 | 0.00 | 83 | 1010.1 |
| 20260509232051 | 57 | 105 | 5.0 | 11.0 | 0.00 | 0.00 | 0.00 | 83 | 1010.0 |
| 20260509231531 | 57 | 114 | 6.0 | 11.0 | 0.00 | 0.00 | 0.00 | 83 | 1010.1 |
| 20260509231032 | 57 | 101 | 5.0 | 12.0 | 0.00 | 0.00 | 0.00 | 82 | 1010.2 |
| 20260509230552 | 57 | 124 | 5.0 | 16.0 | 0.00 | 0.00 | 0.00 | 82 | 1010.3 |
| 20260509230024 | 57 | 96 | 7.0 | 15.0 | 0.00 | 0.00 | 0.00 | 82 | 1010.3 |
| 20260509225542 | 57 | 121 | 6.0 | 13.0 | 0.00 | 0.00 | 0.00 | 81 | 1010.3 |
| 20260509225021 | 57 | 105 | 6.0 | 12.0 | 0.00 | 0.00 | 0.00 | 81 | 1010.2 |
| 20260509224523 | 57 | 139 | 6.0 | 14.0 | 0.00 | 0.00 | 0.00 | 81 | 1010.3 |
| 20260509224021 | 57 | 143 | 8.0 | 15.0 | 0.00 | 0.00 | 0.00 | 82 | 1010.3 |
| 20260509223520 | 57 | 82 | 5.0 | 13.0 | 0.00 | 0.00 | 0.00 | 82 | 1010.2 |
| 20260509223024 | 57 | 124 | 7.0 | 14.0 | 0.00 | 0.00 | 0.00 | 82 | 1010.2 |
| 20260509222525 | 57 | 147 | 8.0 | 17.0 | 0.00 | 0.00 | 0.00 | 82 | 1010.2 |
| 20260509222025 | 57 | 90 | 8.0 | 21.0 | 0.00 | 0.00 | 0.00 | 82 | 1010.2 |
| 20260509221525 | 57 | 143 | 8.0 | 21.0 | 0.00 | 0.00 | 0.00 | 82 | 1010.2 |
| 20260509221027 | 57 | 147 | 7.0 | 18.0 | 0.00 | 0.00 | 0.00 | 82 | 1010.2 |
| 20260509220529 | 57 | 139 | 8.0 | 17.0 | 0.00 | 0.00 | 0.00 | 82 | 1010.2 |
| 20260509220029 | 57 | 130 | 9.0 | 15.0 | 0.00 | 0.00 | 0.00 | 82 | 1010.1 |
| 20260509215531 | 57 | 174 | 6.0 | 23.0 | 0.00 | 0.00 | 0.00 | 82 | 1010.1 |
| 20260509215032 | 57 | 108 | 7.0 | 23.0 | 0.00 | 0.00 | 0.00 | 81 | 1010.3 |
| 20260509214534 | 57 | 139 | 8.0 | 20.0 | 0.00 | 0.00 | 0.00 | 81 | 1010.2 |
| 20260509214033 | 57 | 115 | 8.0 | 15.0 | 0.00 | 0.00 | 0.00 | 81 | 1010.3 |
| 20260509213537 | 57 | 7 | 7.0 | 17.0 | 0.00 | 0.00 | 0.00 | 81 | 1010.1 |
| 20260509213019 | 57 | 7 | 6.0 | 16.0 | 0.00 | 0.00 | 0.00 | 80 | 1010.2 |
| 20260509212541 | 57 | 166 | 7.0 | 18.0 | 0.00 | 0.00 | 0.00 | 81 | 1010.0 |
| 20260509212019 | 57 | 180 | 8.0 | 18.0 | 0.00 | 0.00 | 0.00 | 81 | 1010.1 |
| 20260509211520 | 57 | 116 | 8.0 | 15.0 | 0.00 | 0.00 | 0.00 | 83 | 1010.1 |
| 20260509211022 | 57 | 148 | 8.0 | 18.0 | 0.00 | 0.00 | 0.00 | 84 | 1010.1 |
| 20260509210523 | 57 | 160 | 9.0 | 18.0 | 0.00 | 0.00 | 0.00 | 85 | 1010.1 |
| 20260509210023 | 56 | 114 | 6.0 | 13.0 | 0.00 | 0.00 | 0.00 | 85 | 1010.2 |
| 20260509205543 | 57 | 116 | 6.0 | 16.0 | 0.00 | 0.00 | 0.00 | 84 | 1010.3 |
| 20260509205051 | 57 | 113 | 9.0 | 17.0 | 0.00 | 0.00 | 0.00 | 84 | 1010.3 |
| 20260509204552 | 57 | 7 | 9.0 | 18.0 | 0.00 | 0.00 | 0.00 | 84 | 1010.2 |
| 20260509204031 | 57 | 101 | 11.0 | 18.0 | 0.00 | 0.00 | 0.00 | 83 | 1010.2 |
| 20260509203534 | 57 | 68 | 11.0 | 22.0 | 0.00 | 0.00 | 0.00 | 83 | 1010.2 |
| 20260509203055 | 57 | 64 | 11.0 | 22.0 | 0.00 | 0.00 | 0.00 | 82 | 1010.2 |
| 20260509202604 | 57 | 105 | 12.0 | 22.0 | 0.00 | 0.00 | 0.00 | 81 | 1010.1 |
| 20260509202044 | 57 | 101 | 13.0 | 22.0 | 0.00 | 0.00 | 0.00 | 81 | 1010.1 |
| 20260509201519 | 57 | 98 | 14.0 | 21.0 | 0.00 | 0.00 | 0.00 | 81 | 1010.2 |
| 20260509201022 | 57 | 108 | 13.0 | 21.0 | 0.00 | 0.00 | 0.00 | 80 | 1010.2 |
| 20260509200523 | 57 | 109 | 12.0 | 19.0 | 0.00 | 0.00 | 0.00 | 80 | 1010.3 |
| 20260509200023 | 57 | 105 | 13.0 | 21.0 | 0.00 | 0.00 | 0.00 | 80 | 1010.1 |
| 20260509195519 | 56 | 101 | 11.0 | 16.0 | 0.00 | 0.00 | 0.00 | 80 | 1010.1 |
| 20260509195048 | 56 | 93 | 10.0 | 17.0 | 0.00 | 0.00 | 0.00 | 80 | 1010.0 |
| 20260509194549 | 57 | 7 | 9.0 | 16.0 | 0.00 | 0.00 | 0.00 | 79 | 1010.0 |
| 20260509194030 | 57 | 7 | 10.0 | 17.0 | 0.00 | 0.00 | 0.00 | 79 | 1010.0 |
| 20260509193532 | 57 | 97 | 8.0 | 15.0 | 0.00 | 0.00 | 0.00 | 81 | 1009.9 |
| 20260509193054 | 58 | 99 | 6.0 | 11.0 | 0.00 | 0.00 | 0.00 | 80 | 1009.9 |
| 20260509192533 | 58 | 87 | 5.0 | 13.0 | 0.00 | 0.00 | 0.00 | 80 | 1009.8 |
| 20260509192034 | 59 | 101 | 5.0 | 14.0 | 0.00 | 0.00 | 0.00 | 80 | 1009.8 |
| 20260509191541 | 59 | 112 | 8.0 | 14.0 | 0.00 | 0.00 | 0.00 | 81 | 1009.6 |
| 20260509191044 | 59 | 100 | 7.0 | 12.0 | 0.00 | 0.00 | 0.00 | 80 | 1009.7 |
| 20260509190544 | 59 | 98 | 5.0 | 14.0 | 0.00 | 0.00 | 0.00 | 80 | 1009.7 |
| 20260509190045 | 60 | 110 | 6.0 | 14.0 | 0.00 | 0.00 | 0.00 | 80 | 1009.7 |
| 20260509185520 | 59 | 140 | 5.0 | 11.0 | 0.00 | 0.00 | 0.00 | 79 | 1009.8 |
| 20260509185023 | 59 | 122 | 3.0 | 10.0 | 0.00 | 0.00 | 0.00 | 79 | 1009.7 |
| 20260509184526 | 60 | 129 | 4.0 | 10.0 | 0.00 | 0.00 | 0.00 | 78 | 1009.7 |
| 20260509184029 | 60 | 128 | 3.0 | 11.0 | 0.00 | 0.00 | 0.00 | 78 | 1009.8 |
| 20260509183600 | 60 | 106 | 5.0 | 11.0 | 0.00 | 0.00 | 0.00 | 77 | 1009.5 |
| 20260509183020 | 60 | 87 | 6.0 | 10.0 | 0.00 | 0.00 | 0.00 | 77 | 1009.6 |
| 20260509182542 | 61 | 7 | 4.0 | 10.0 | 0.00 | 0.00 | 0.00 | 77 | 1009.5 |
| 20260509182023 | 61 | 114 | 4.0 | 13.0 | 0.00 | 0.00 | 0.00 | 76 | 1009.5 |
| 20260509181544 | 61 | 114 | 5.0 | 13.0 | 0.00 | 0.00 | 0.00 | 75 | 1009.5 |
| 20260509181025 | 61 | 121 | 4.0 | 6.0 | 0.00 | 0.00 | 0.00 | 75 | 1009.6 |
| 20260509180544 | 61 | 128 | 2.0 | 7.0 | 0.00 | 0.00 | 0.00 | 75 | 1009.6 |
| 20260509180025 | 62 | 139 | 4.0 | 8.0 | 0.00 | 0.00 | 0.00 | 75 | 1009.5 |
| 20260509175526 | 62 | 143 | 3.0 | 8.0 | 0.00 | 0.00 | 0.00 | 74 | 1009.5 |
| 20260509175027 | 62 | 72 | 4.0 | 10.0 | 0.00 | 0.00 | 0.00 | 74 | 1009.6 |
| 20260509174549 | 62 | 97 | 5.0 | 12.0 | 0.00 | 0.00 | 0.00 | 74 | 1009.5 |
| 20260509174050 | 62 | 125 | 6.0 | 12.0 | 0.00 | 0.00 | 0.00 | 74 | 1009.6 |